STARLINK-36381

Last updated on Fri Mar 27 2026 00:02:06 GMT+0000 (Coordinated Universal Time)

1 67952U 26037W 26085.50002314 .00115082 00000+0 19473-2 0 9995 2 67952 43.0003 97.0866 0002265 276.3097 193.5564 15.50453994 5908
UTC large
Height (km)
Speed (km/s)
/
Latitude / Longitude
Inclination (degrees)
Orbital Period (minutes)
Azimuth
Elevation
Range (km)
Doppler Factor

Next 0 passes for location: London (51.5072 / 0.1276)

Sorry there are no passes over London.